Location: Bourg-d�Oueil
(42.8588°N, 0.4991°E)
Time: 02:59:23
(UTC+00:00)

Cosmos 968 Rocket - Pass Details

Date: 16 June 2021
Orbit: 740 x 771 km, 74.0° (Epoch: 04 August)

Event Time Altitude Azimuth Distance (km) Brightness Sun altitude
Rises 22:24:33 0° 342° (NNW) 3,187 8.3 -20.3°
Reaches altitude 10° 22:26:56 10° 345° (NNW) 2,261 7.1 -20.5°
Maximum altitude 22:32:02 66° 68° (ENE) 814 3.6 -20.8°
Enters shadow 22:33:33 44° 132° (SE) 1,030 3.7 -20.9°
